When you browse on this site, cookies collect data to enhance your experience and personalize the content and advertising you see.
Visit our Privacy Policy to learn more. By continuing to use the site, you agree to this use of cookies and data.
  • In Österreich
  • Länderverzeichnis
  • Für 7 Tage
  • Wassertemperatur
  • Wetterkarte
  • News
  • Widgets
  • user-avatar
    Anmelden

    Stündliche Wetter Atitalaquia

    Heute, 29 Januar, Mittwoch

    Zeit Temperatur Niederschläge Wind Luftdruck Luftfeuchtigkeit
    00:00 +12°C° 0 mm 1 m/S 592 mmHg 74%
    01:00 +12°C° 0 mm 1 m/S 592 mmHg 80%
    02:00 +11°C° 0 mm 1 m/S 591 mmHg 85%
    03:00 +11°C° 0 mm 1 m/S 591 mmHg 87%
    04:00 +11°C° 0 mm 1 m/S 592 mmHg 89%
    05:00 +11°C° 0 mm 1 m/S 592 mmHg 91%
    06:00 +11°C° 0 mm 1 m/S 592 mmHg 85%
    07:00 +12°C° 0 mm 1 m/S 593 mmHg 80%
    08:00 +12°C° 0 mm 1 m/S 593 mmHg 75%
    09:00 +14°C° 0 mm 2 m/S 594 mmHg 62%
    10:00 +16°C° 0 mm 2 m/S 594 mmHg 49%
    11:00 +18°C° 0 mm 3 m/S 595 mmHg 36%
    12:00 +20°C° 0 mm 3 m/S 594 mmHg 30%
    13:00 +22°C° 0 mm 3 m/S 594 mmHg 25%
    14:00 +24°C° 0 mm 3 m/S 594 mmHg 19%
    15:00 +22°C° 0 mm 3 m/S 594 mmHg 25%
    16:00 +20°C° 0 mm 3 m/S 593 mmHg 31%
    17:00 +19°C° 0 mm 3 m/S 592 mmHg 36%
    18:00 +17°C° 0 mm 3 m/S 592 mmHg 45%
    19:00 +15°C° 0 mm 2 m/S 592 mmHg 54%
    20:00 +13°C° 0 mm 1 m/S 592 mmHg 63%
    21:00 +13°C° 0 mm 1 m/S 592 mmHg 65%
    22:00 +12°C° 0 mm 1 m/S 591 mmHg 67%
    23:00 +12°C° 0 mm 1 m/S 591 mmHg 69%

    Morgen, 30 Januar, Donnerstag

    Zeit Temperatur Niederschläge Wind Luftdruck Luftfeuchtigkeit
    00:00 +12°C° 0 mm 1 m/S 591 mmHg 66%
    01:00 +11°C° 0 mm 1 m/S 590 mmHg 62%
    02:00 +10°C° 0 mm 2 m/S 590 mmHg 59%
    03:00 +10°C° 0 mm 2 m/S 590 mmHg 57%
    04:00 +10°C° 0 mm 2 m/S 590 mmHg 54%
    05:00 +10°C° 0 mm 2 m/S 590 mmHg 51%
    06:00 +12°C° 0 mm 2 m/S 591 mmHg 47%
    07:00 +12°C° 0 mm 3 m/S 592 mmHg 42%
    08:00 +14°C° 0 mm 3 m/S 592 mmHg 38%
    09:00 +16°C° 0 mm 5 m/S 593 mmHg 32%
    10:00 +20°C° 0 mm 7 m/S 594 mmHg 26%
    11:00 +23°C° 0 mm 8 m/S 595 mmHg 20%
    12:00 +23°C° 0 mm 9 m/S 594 mmHg 19%
    13:00 +23°C° 0 mm 9 m/S 594 mmHg 18%
    14:00 +23°C° 0 mm 10 m/S 593 mmHg 17%
    15:00 +22°C° 0 mm 9 m/S 593 mmHg 20%
    16:00 +20°C° 0 mm 8 m/S 592 mmHg 22%
    17:00 +18°C° 0 mm 7 m/S 592 mmHg 24%
    18:00 +16°C° 0 mm 6 m/S 592 mmHg 28%
    19:00 +15°C° 0 mm 5 m/S 592 mmHg 32%
    20:00 +14°C° 0 mm 5 m/S 592 mmHg 36%
    21:00 +14°C° 0 mm 4 m/S 592 mmHg 37%
    22:00 +14°C° 0 mm 3 m/S 592 mmHg 38%
    23:00 +15°C° 0 mm 2 m/S 592 mmHg 39%

    übermorgen, 31 Januar, Freitag

    Zeit Temperatur Niederschläge Wind Luftdruck Luftfeuchtigkeit
    00:00 +15°C° 0 mm 1 m/S 592 mmHg 41%
    01:00 +14°C° 0 mm 1 m/S 592 mmHg 43%
    02:00 +14°C° 0 mm 1 m/S 592 mmHg 45%
    03:00 +13°C° 0 mm 1 m/S 592 mmHg 48%
    04:00 +13°C° 0 mm 1 m/S 591 mmHg 50%
    05:00 +12°C° 0 mm 1 m/S 591 mmHg 53%
    06:00 +13°C° 0 mm 1 m/S 592 mmHg 50%
    07:00 +14°C° 0 mm 1 m/S 593 mmHg 47%
    08:00 +15°C° 0 mm 1 m/S 594 mmHg 45%
    09:00 +18°C° 0 mm 1 m/S 595 mmHg 40%
    10:00 +19°C° 0 mm 2 m/S 595 mmHg 36%
    11:00 +20°C° 0 mm 2 m/S 595 mmHg 31%
    12:00 +21°C° 0 mm 3 m/S 595 mmHg 32%
    13:00 +21°C° 0 mm 4 m/S 595 mmHg 33%
    14:00 +21°C° 0 mm 5 m/S 594 mmHg 34%
    15:00 +20°C° 0 mm 5 m/S 594 mmHg 38%
    16:00 +19°C° 0 mm 5 m/S 594 mmHg 43%
    17:00 +17°C° 0 mm 5 m/S 594 mmHg 47%
    18:00 +17°C° 0 mm 4 m/S 594 mmHg 51%
    19:00 +16°C° 0 mm 3 m/S 594 mmHg 56%
    20:00 +14°C° 0 mm 3 m/S 594 mmHg 60%
    21:00 +14°C° 0 mm 2 m/S 594 mmHg 65%
    22:00 +13°C° 0 mm 2 m/S 593 mmHg 70%
    23:00 +12°C° 0 mm 2 m/S 593 mmHg 75%

    1 Februar, Samstag

    Zeit Temperatur Niederschläge Wind Luftdruck Luftfeuchtigkeit
    00:00 +11°C° 0 mm 1 m/S 593 mmHg 79%
    01:00 +11°C° 0 mm 1 m/S 593 mmHg 82%
    02:00 +11°C° 0 mm 1 m/S 592 mmHg 85%
    03:00 +10°C° 0 mm 1 m/S 593 mmHg 85%
    04:00 +10°C° 0 mm 1 m/S 593 mmHg 85%
    05:00 +10°C° 0 mm 1 m/S 593 mmHg 85%
    06:00 +9°C° 0 mm 2 m/S 594 mmHg 83%
    07:00 +10°C° 0 mm 2 m/S 594 mmHg 81%
    08:00 +10°C° 0 mm 2 m/S 595 mmHg 79%
    09:00 +12°C° 0 mm 2 m/S 596 mmHg 74%
    10:00 +13°C° 0 mm 2 m/S 596 mmHg 68%
    11:00 +15°C° 0 mm 2 m/S 596 mmHg 63%
    12:00 +14°C° 0 mm 3 m/S 596 mmHg 62%
    13:00 +14°C° 0 mm 3 m/S 596 mmHg 62%
    14:00 +15°C° 0 mm 4 m/S 595 mmHg 61%
    15:00 +13°C° 0 mm 4 m/S 595 mmHg 66%
    16:00 +12°C° 0 mm 4 m/S 594 mmHg 70%
    17:00 +11°C° 0 mm 3 m/S 594 mmHg 75%
    18:00 +11°C° 0 mm 3 m/S 594 mmHg 77%
    19:00 +10°C° 0 mm 2 m/S 595 mmHg 80%
    20:00 +10°C° 0 mm 2 m/S 595 mmHg 82%
    21:00 +10°C° 0.1 mm 1 m/S 595 mmHg 83%
    22:00 +10°C° 0.1 mm 1 m/S 595 mmHg 84%
    23:00 +10°C° 0.1 mm 1 m/S 595 mmHg 85%

    2 Februar, Sonntag

    Zeit Temperatur Niederschläge Wind Luftdruck Luftfeuchtigkeit
    00:00 +10°C° 0 mm 1 m/S 594 mmHg 86%
    01:00 +10°C° 0 mm 1 m/S 594 mmHg 86%
    02:00 +9°C° 0 mm 0 m/S 594 mmHg 87%
    03:00 +9°C° 0 mm 0 m/S 594 mmHg 87%
    04:00 +9°C° 0 mm 0 m/S 593 mmHg 87%
    05:00 +9°C° 0 mm 0 m/S 593 mmHg 87%
    06:00 +9°C° 0 mm 0 m/S 594 mmHg 84%
    07:00 +10°C° 0 mm 0 m/S 594 mmHg 80%
    08:00 +11°C° 0 mm 0 m/S 595 mmHg 76%
    09:00 +13°C° 0 mm 0 m/S 595 mmHg 68%
    10:00 +16°C° 0 mm 1 m/S 596 mmHg 59%
    11:00 +19°C° 0 mm 1 m/S 596 mmHg 50%
    12:00 +20°C° 0 mm 1 m/S 596 mmHg 45%
    13:00 +21°C° 0 mm 1 m/S 596 mmHg 39%
    14:00 +23°C° 0 mm 2 m/S 595 mmHg 34%
    15:00 +21°C° 0 mm 2 m/S 595 mmHg 36%
    16:00 +21°C° 0 mm 2 m/S 595 mmHg 39%
    17:00 +20°C° 0 mm 2 m/S 595 mmHg 42%
    18:00 +18°C° 0 mm 2 m/S 594 mmHg 50%
    19:00 +18°C° 0 mm 1 m/S 594 mmHg 57%
    20:00 +14°C° 0 mm 0 m/S 594 mmHg 65%
    21:00 +15°C° 0 mm 1 m/S 594 mmHg 64%
    22:00 +15°C° 0 mm 1 m/S 594 mmHg 64%
    23:00 +15°C° 0 mm 1 m/S 594 mmHg 64%

    3 Februar, Montag

    Zeit Temperatur Niederschläge Wind Luftdruck Luftfeuchtigkeit
    00:00 +15°C° 0 mm 1 m/S 593 mmHg 64%
    01:00 +15°C° 0 mm 1 m/S 593 mmHg 64%
    02:00 +14°C° 0 mm 1 m/S 592 mmHg 64%
    03:00 +14°C° 0 mm 1 m/S 592 mmHg 65%
    04:00 +14°C° 0 mm 1 m/S 592 mmHg 67%
    05:00 +14°C° 0 mm 1 m/S 592 mmHg 68%
    06:00 +14°C° 0 mm 2 m/S 592 mmHg 65%
    07:00 +15°C° 0 mm 2 m/S 593 mmHg 63%
    08:00 +16°C° 0 mm 2 m/S 593 mmHg 60%
    09:00 +18°C° 0 mm 3 m/S 594 mmHg 52%
    10:00 +20°C° 0 mm 4 m/S 594 mmHg 43%
    11:00 +22°C° 0 mm 5 m/S 595 mmHg 35%
    12:00 +22°C° 0 mm 5 m/S 594 mmHg 35%
    13:00 +22°C° 0 mm 5 m/S 594 mmHg 34%
    14:00 +22°C° 0 mm 5 m/S 593 mmHg 34%
    15:00 +21°C° 0 mm 5 m/S 594 mmHg 37%
    16:00 +20°C° 0 mm 5 m/S 594 mmHg 40%
    17:00 +20°C° 0 mm 4 m/S 594 mmHg 44%
    18:00 +18°C° 0.5 mm 4 m/S 594 mmHg 53%
    19:00 +17°C° 0.5 mm 4 m/S 594 mmHg 62%
    20:00 +14°C° 0.5 mm 3 m/S 594 mmHg 72%
    21:00 +15°C° 1.4 mm 2 m/S 594 mmHg 76%
    22:00 +14°C° 1.4 mm 2 m/S 593 mmHg 81%
    23:00 +14°C° 1.4 mm 1 m/S 593 mmHg 86%
    Mehr zeigen